KLM550 CYLW-EHAM

Flight info

Callsign KLM550
Flight time N/A
Altitude 35000
Route ENDBY3 ENDBY DCT ROMRA Q949 ELLKS Q862 YEGGA/N0490F360 Q963 CALLY/N0492F350 Q963 YMM DCT 60N104W 64N095W/N0506F370 66N084W 68N070W/M086F370 69N055W 68N040W 66N027W 63N016W/N0496F370 DCT MODGO/N0490F390 DCT SOXON DCT DENOG DCT NAVEL DCT TOPPA
Aircraft B78X/H-SDE1E2E3FGHIJ2J3J4J5M1RWXY/LB1D1

Departure

Time 2026-04-30 07:38
Airport Kelowna International Airport (CYLW)

Arrival

Time N/A
Airport Amsterdam Airport Schiphol (EHAM)
Time Latitude Longitude Altitude Speed Heading
2026-04-30 07:10 49.95163 -119.38115 1422 ft 0 kts 266°
2026-04-30 07:27 49.95164 -119.38101 1422 ft 2 kts 266°
2026-04-30 07:27 49.95165 -119.38073 1422 ft 3 kts 266°
2026-04-30 07:27 49.95166 -119.38042 1422 ft 3 kts 266°
2026-04-30 07:28 49.95167 -119.38010 1422 ft 3 kts 266°
2026-04-30 07:28 49.95169 -119.37979 1422 ft 3 kts 266°
2026-04-30 07:28 49.95169 -119.37982 1422 ft 0 kts 266°
2026-04-30 07:29 49.95169 -119.37983 1422 ft 0 kts 266°
2026-04-30 07:30 49.95168 -119.37983 1422 ft 0 kts 266°
2026-04-30 07:31 49.95168 -119.37984 1422 ft 1 kts 266°
2026-04-30 07:31 49.95171 -119.37993 1422 ft 1 kts 292°
2026-04-30 07:31 49.95187 -119.38001 1422 ft 4 kts
2026-04-30 07:31 49.95224 -119.37992 1422 ft 6 kts
2026-04-30 07:32 49.95266 -119.37974 1422 ft 5 kts 46°
2026-04-30 07:32 49.95278 -119.37931 1422 ft 5 kts 69°
2026-04-30 07:32 49.95279 -119.37883 1422 ft 6 kts 85°
2026-04-30 07:32 49.95283 -119.37811 1422 ft 8 kts 85°
2026-04-30 07:33 49.95274 -119.37738 1422 ft 6 kts 133°
2026-04-30 07:33 49.95230 -119.37714 1422 ft 7 kts 172°
2026-04-30 07:33 49.95172 -119.37702 1422 ft 9 kts 173°
2026-04-30 07:33 49.95103 -119.37692 1422 ft 11 kts 175°
2026-04-30 07:34 49.95023 -119.37681 1422 ft 12 kts 175°
2026-04-30 07:34 49.94934 -119.37674 1422 ft 13 kts 177°
2026-04-30 07:34 49.94839 -119.37663 1422 ft 14 kts 175°
2026-04-30 07:34 49.94741 -119.37651 1422 ft 13 kts 175°
2026-04-30 07:35 49.94686 -119.37653 1422 ft 2 kts 207°
2026-04-30 07:35 49.94664 -119.37665 1422 ft 3 kts 183°
2026-04-30 07:35 49.94657 -119.37656 1422 ft 1 kts 134°
2026-04-30 07:35 49.94656 -119.37645 1422 ft 1 kts 96°
2026-04-30 07:36 49.94665 -119.37629 1422 ft 3 kts 27°
2026-04-30 07:36 49.94672 -119.37631 1422 ft 0 kts 353°
2026-04-30 07:38 49.94740 -119.37644 1422 ft 44 kts 354°
2026-04-30 07:38 49.95369 -119.37724 1422 ft 134 kts 354°
2026-04-30 07:38 49.96502 -119.37869 1799 ft 165 kts 355°
2026-04-30 07:38 49.97628 -119.38090 2765 ft 176 kts 353°
2026-04-30 07:39 49.98943 -119.38353 3411 ft 198 kts 353°
2026-04-30 07:39 50.00347 -119.38608 3942 ft 210 kts 353°
2026-04-30 07:39 50.01785 -119.39251 4550 ft 222 kts 341°
2026-04-30 07:39 50.03283 -119.40035 5179 ft 236 kts 341°
2026-04-30 07:40 50.04869 -119.40865 5921 ft 243 kts 341°
2026-04-30 07:40 50.06540 -119.41735 6434 ft 261 kts 342°
2026-04-30 07:40 50.08287 -119.42621 7206 ft 266 kts 342°
2026-04-30 07:40 50.10065 -119.43538 8025 ft 270 kts 341°
2026-04-30 07:41 50.11856 -119.44465 8796 ft 274 kts 341°
2026-04-30 07:41 50.13682 -119.45397 9599 ft 276 kts 343°
2026-04-30 07:41 50.15576 -119.45542 10471 ft 274 kts 11°
2026-04-30 07:41 50.17230 -119.44221 11409 ft 268 kts 39°
2026-04-30 07:42 50.18597 -119.42312 12056 ft 271 kts 32°
2026-04-30 07:42 50.20401 -119.41265 12368 ft 284 kts 13°
2026-04-30 07:42 50.22362 -119.40452 12728 ft 298 kts 15°
2026-04-30 07:42 50.24358 -119.39318 13019 ft 315 kts 20°
2026-04-30 07:43 50.26459 -119.38013 13310 ft 331 kts 20°
2026-04-30 07:43 50.28656 -119.36658 13582 ft 348 kts 20°
2026-04-30 07:43 50.30923 -119.35278 13833 ft 364 kts 20°
2026-04-30 07:43 50.33349 -119.33816 14080 ft 381 kts 20°
2026-04-30 07:44 50.35871 -119.32303 14426 ft 395 kts 20°
2026-04-30 07:44 50.38463 -119.30757 14995 ft 402 kts 20°
2026-04-30 07:44 50.41087 -119.29186 15634 ft 407 kts 20°
2026-04-30 07:44 50.43676 -119.27332 16265 ft 413 kts 28°
2026-04-30 07:45 50.46107 -119.24897 16970 ft 417 kts 33°
2026-04-30 07:45 50.48498 -119.22306 17681 ft 419 kts 34°
2026-04-30 07:45 50.50889 -119.19658 18386 ft 421 kts 34°
2026-04-30 07:45 50.53167 -119.16929 18986 ft 426 kts 37°
2026-04-30 07:46 50.55478 -119.13793 19593 ft 430 kts 40°
2026-04-30 07:46 50.57640 -119.10557 20128 ft 436 kts 43°
2026-04-30 07:46 50.59783 -119.07162 20704 ft 440 kts 44°
2026-04-30 07:46 50.61912 -119.03683 21296 ft 442 kts 44°
2026-04-30 07:47 50.64048 -119.00142 21868 ft 446 kts 45°
2026-04-30 07:47 50.66183 -118.96579 22424 ft 449 kts 45°
2026-04-30 07:47 50.68433 -118.93155 22908 ft 451 kts 37°
2026-04-30 07:47 50.71027 -118.90433 23416 ft 452 kts 29°
2026-04-30 07:48 50.73780 -118.88017 23976 ft 454 kts 27°
2026-04-30 07:48 50.76580 -118.85623 24444 ft 458 kts 27°
2026-04-30 07:48 50.79351 -118.83214 24929 ft 461 kts 27°
2026-04-30 07:48 50.82183 -118.80702 25431 ft 464 kts 28°
2026-04-30 07:49 50.84951 -118.78213 25933 ft 465 kts 28°
2026-04-30 07:49 50.87771 -118.75649 26401 ft 468 kts 28°
2026-04-30 07:49 50.90586 -118.73071 26855 ft 470 kts 28°
2026-04-30 07:49 50.93434 -118.70454 27283 ft 473 kts 28°
2026-04-30 07:50 50.96292 -118.67818 27720 ft 476 kts 28°
2026-04-30 07:50 50.99155 -118.65183 28154 ft 478 kts 28°
2026-04-30 07:50 51.02038 -118.62521 28622 ft 480 kts 28°
2026-04-30 07:50 51.04904 -118.59871 29051 ft 482 kts 28°
2026-04-30 07:51 51.07796 -118.57190 29496 ft 483 kts 28°
2026-04-30 07:51 51.10706 -118.54487 29990 ft 483 kts 28°
2026-04-30 07:51 51.13602 -118.51794 30490 ft 482 kts 28°
2026-04-30 07:51 51.16494 -118.49106 30979 ft 481 kts 28°
2026-04-30 07:52 51.19381 -118.46422 31437 ft 480 kts 28°
2026-04-30 07:52 51.22266 -118.43727 31915 ft 479 kts 28°
2026-04-30 07:52 51.25140 -118.41039 32370 ft 478 kts 28°
2026-04-30 07:52 51.27971 -118.38395 32803 ft 477 kts 28°
2026-04-30 07:53 51.30858 -118.35694 33114 ft 476 kts 28°
2026-04-30 07:53 51.33673 -118.33055 33262 ft 473 kts 28°
2026-04-30 07:53 51.36503 -118.30395 33289 ft 472 kts 28°
2026-04-30 07:54 51.42153 -118.25070 33298 ft 470 kts 28°
2026-04-30 07:54 51.47770 -118.19773 33308 ft 470 kts 28°
2026-04-30 07:55 51.53424 -118.14428 33296 ft 470 kts 28°
2026-04-30 07:55 51.59015 -118.09123 33298 ft 470 kts 28°
2026-04-30 07:56 51.64646 -118.03761 33302 ft 470 kts 28°
2026-04-30 07:56 51.70269 -117.98380 33287 ft 470 kts 28°
2026-04-30 07:57 51.75863 -117.93013 33295 ft 470 kts 28°
2026-04-30 07:57 51.81476 -117.87621 33289 ft 470 kts 28°
2026-04-30 07:58 51.87106 -117.82202 33277 ft 470 kts 28°
2026-04-30 07:58 51.92728 -117.76775 33289 ft 470 kts 28°
2026-04-30 07:59 51.98332 -117.71339 33277 ft 470 kts 28°
2026-04-30 07:59 52.03497 -117.64826 33274 ft 474 kts 44°
2026-04-30 08:00 52.09864 -117.52513 33269 ft 478 kts 49°
2026-04-30 08:00 52.13830 -117.43813 33276 ft 477 kts 51°
2026-04-30 08:01 52.17683 -117.35006 33276 ft 478 kts 51°
2026-04-30 08:01 52.21518 -117.26165 33262 ft 477 kts 51°
2026-04-30 08:02 52.27215 -117.12951 33268 ft 478 kts 51°
2026-04-30 08:03 52.34838 -116.95184 33263 ft 477 kts 51°
2026-04-30 08:04 52.38620 -116.86322 33261 ft 477 kts 51°
2026-04-30 08:04 52.42420 -116.77378 33502 ft 482 kts 52°
2026-04-30 08:04 52.44340 -116.72855 33920 ft 480 kts 52°
2026-04-30 08:05 52.46249 -116.68349 34297 ft 480 kts 52°
2026-04-30 08:05 52.48140 -116.63867 34610 ft 481 kts 52°
2026-04-30 08:05 52.50047 -116.59335 34933 ft 481 kts 52°
2026-04-30 08:05 52.51949 -116.54812 35244 ft 482 kts 52°
2026-04-30 08:06 52.53857 -116.50271 35550 ft 482 kts 52°
2026-04-30 08:06 52.55758 -116.45738 35852 ft 483 kts 52°
2026-04-30 08:06 52.57642 -116.41243 36153 ft 484 kts 52°
2026-04-30 08:06 52.59576 -116.36622 36457 ft 484 kts 52°
2026-04-30 08:07 52.61460 -116.32110 36741 ft 484 kts 52°
2026-04-30 08:07 52.63358 -116.27555 37024 ft 485 kts 52°
2026-04-30 08:07 52.65269 -116.22961 37194 ft 486 kts 52°
2026-04-30 08:08 52.69068 -116.13789 37229 ft 481 kts 52°
2026-04-30 08:08 52.72804 -116.04719 37240 ft 479 kts 52°
2026-04-30 08:09 52.76522 -115.95658 37253 ft 480 kts 52°
2026-04-30 08:09 52.80262 -115.86515 37237 ft 480 kts 52°
2026-04-30 08:10 52.83967 -115.77441 37246 ft 479 kts 52°
2026-04-30 08:10 52.87690 -115.68292 37252 ft 480 kts 52°
2026-04-30 08:11 52.91405 -115.59119 37233 ft 479 kts 52°
2026-04-30 08:11 52.95107 -115.49944 37252 ft 479 kts 52°
2026-04-30 08:12 52.98814 -115.40729 37246 ft 479 kts 52°
2026-04-30 08:12 53.02479 -115.31581 37239 ft 479 kts 52°
2026-04-30 08:13 53.06179 -115.22313 37250 ft 479 kts 52°
2026-04-30 08:13 53.09840 -115.13113 37238 ft 479 kts 52°
2026-04-30 08:14 53.13497 -115.03873 37241 ft 479 kts 53°
2026-04-30 08:14 53.17168 -114.94580 37250 ft 479 kts 52°
2026-04-30 08:15 53.20830 -114.85282 37234 ft 479 kts 52°
2026-04-30 08:15 53.24455 -114.76036 37248 ft 479 kts 51°
2026-04-30 08:15 53.26580 -114.71848 37210 ft 472 kts 40°
2026-04-30 08:16 53.29165 -114.68537 37224 ft 465 kts 28°
2026-04-30 08:16 53.35004 -114.64003 37269 ft 462 kts 19°
2026-04-30 08:17 53.40970 -114.60065 37240 ft 460 kts 19°
2026-04-30 08:17 53.46923 -114.56108 37241 ft 460 kts 19°
2026-04-30 08:18 53.52860 -114.52107 37245 ft 460 kts 19°
2026-04-30 08:18 53.58769 -114.48106 37235 ft 460 kts 19°
2026-04-30 08:19 53.64688 -114.44076 37249 ft 460 kts 19°
2026-04-30 08:19 53.70637 -114.40024 37239 ft 460 kts 19°
2026-04-30 08:20 53.76566 -114.35973 37235 ft 460 kts 19°
2026-04-30 08:20 53.82459 -114.31928 37240 ft 460 kts 19°
2026-04-30 08:21 53.88383 -114.27850 37234 ft 460 kts 19°
2026-04-30 08:21 53.94300 -114.23771 37235 ft 459 kts 19°
2026-04-30 08:22 54.00217 -114.19674 37241 ft 459 kts 19°
2026-04-30 08:22 54.06131 -114.15564 37230 ft 459 kts 19°
2026-04-30 08:23 54.12039 -114.11453 37235 ft 459 kts 19°
2026-04-30 08:23 54.17919 -114.07352 37235 ft 459 kts 19°
2026-04-30 08:24 54.23816 -114.03221 37224 ft 459 kts 19°
2026-04-30 08:24 54.29724 -113.99070 37224 ft 459 kts 19°
2026-04-30 08:25 54.35637 -113.94893 37222 ft 459 kts 19°
2026-04-30 08:25 54.41551 -113.90705 37206 ft 459 kts 20°
2026-04-30 08:26 54.47439 -113.86519 37220 ft 460 kts 19°
2026-04-30 08:26 54.53329 -113.82325 37211 ft 460 kts 19°
2026-04-30 08:27 54.59237 -113.78108 37224 ft 459 kts 19°
2026-04-30 08:27 54.65125 -113.73895 37212 ft 459 kts 19°
2026-04-30 08:28 54.71032 -113.69647 37207 ft 460 kts 19°
2026-04-30 08:28 54.76944 -113.65376 37218 ft 460 kts 19°
2026-04-30 08:29 54.82813 -113.61136 37203 ft 460 kts 19°
2026-04-30 08:29 54.88720 -113.56859 37203 ft 460 kts 19°
2026-04-30 08:30 54.94627 -113.52558 37203 ft 460 kts 19°
2026-04-30 08:30 55.00502 -113.48271 37194 ft 459 kts 19°
2026-04-30 08:31 55.06390 -113.43944 37187 ft 459 kts 19°
2026-04-30 08:31 55.12078 -113.38998 37199 ft 465 kts 29°
2026-04-30 08:32 55.17395 -113.32423 37205 ft 469 kts 33°
2026-04-30 08:32 55.22538 -113.25444 37177 ft 467 kts 34°
2026-04-30 08:33 55.27604 -113.18313 37194 ft 468 kts 34°
2026-04-30 08:33 55.32668 -113.11079 37186 ft 468 kts 35°
2026-04-30 08:34 55.37703 -113.03847 37176 ft 470 kts 35°
2026-04-30 08:34 55.42743 -112.96573 37163 ft 470 kts 35°
2026-04-30 08:35 55.47823 -112.89211 37177 ft 473 kts 35°
2026-04-30 08:35 55.52840 -112.81926 37157 ft 469 kts 35°
2026-04-30 08:36 55.57890 -112.74550 37166 ft 471 kts 35°
2026-04-30 08:36 55.62926 -112.67179 37181 ft 471 kts 35°
2026-04-30 08:37 55.67939 -112.59815 37157 ft 472 kts 35°
2026-04-30 08:37 55.72960 -112.52389 37172 ft 471 kts 36°
2026-04-30 08:38 55.78010 -112.44894 37148 ft 472 kts 36°
2026-04-30 08:38 55.83044 -112.37417 37164 ft 470 kts 35°
2026-04-30 08:39 55.88033 -112.29985 37148 ft 472 kts 36°
2026-04-30 08:39 55.93083 -112.22411 37152 ft 471 kts 36°
2026-04-30 08:40 55.98062 -112.14929 37142 ft 471 kts 36°
2026-04-30 08:40 56.03060 -112.07412 37129 ft 470 kts 36°
2026-04-30 08:41 56.08066 -111.99845 37143 ft 471 kts 36°
2026-04-30 08:41 56.13066 -111.92263 37125 ft 471 kts 36°
2026-04-30 08:42 56.18065 -111.84656 37138 ft 472 kts 36°
2026-04-30 08:42 56.23082 -111.77006 37115 ft 470 kts 36°
2026-04-30 08:43 56.28032 -111.69412 37133 ft 473 kts 36°
2026-04-30 08:43 56.33019 -111.61724 37116 ft 472 kts 36°
2026-04-30 08:44 56.38033 -111.53997 37115 ft 473 kts 36°
2026-04-30 08:44 56.43023 -111.46268 37121 ft 473 kts 36°
2026-04-30 08:45 56.48019 -111.38511 37101 ft 474 kts 36°
2026-04-30 08:45 56.52990 -111.30765 37119 ft 475 kts 36°
2026-04-30 08:46 56.57983 -111.22939 37104 ft 476 kts 36°
2026-04-30 08:46 56.62967 -111.14925 37116 ft 478 kts 39°
2026-04-30 08:47 56.67774 -111.06562 37109 ft 480 kts 40°
2026-04-30 08:47 56.72484 -110.98070 37106 ft 480 kts 40°
2026-04-30 08:48 56.77200 -110.89423 37117 ft 481 kts 41°
2026-04-30 08:48 56.81875 -110.80782 37112 ft 481 kts 41°
2026-04-30 08:49 56.86606 -110.72007 37106 ft 482 kts 41°
2026-04-30 08:49 56.91302 -110.63250 37119 ft 483 kts 41°
2026-04-30 08:50 56.95966 -110.54516 37111 ft 483 kts 41°
2026-04-30 08:50 57.00661 -110.45699 37110 ft 484 kts 41°
2026-04-30 08:51 57.05364 -110.36837 37116 ft 484 kts 41°
2026-04-30 08:51 57.10057 -110.27950 37107 ft 484 kts 41°
2026-04-30 08:52 57.14754 -110.19037 37111 ft 485 kts 41°
2026-04-30 08:52 57.19419 -110.10150 37113 ft 486 kts 42°
2026-04-30 08:53 57.24109 -110.01161 37102 ft 486 kts 42°
2026-04-30 08:53 57.28802 -109.92139 37114 ft 488 kts 42°
2026-04-30 08:54 57.33503 -109.83073 37107 ft 488 kts 42°
2026-04-30 08:54 57.38196 -109.73980 37102 ft 488 kts 43°
2026-04-30 08:55 57.42841 -109.64925 37101 ft 488 kts 43°
2026-04-30 08:55 57.47525 -109.55794 37104 ft 488 kts 43°
2026-04-30 08:56 57.52199 -109.46637 37095 ft 488 kts 43°
2026-04-30 08:56 57.56859 -109.37466 37104 ft 488 kts 43°
2026-04-30 08:57 57.61492 -109.28308 37096 ft 488 kts 43°
2026-04-30 08:57 57.66144 -109.19081 37098 ft 488 kts 43°
2026-04-30 08:58 57.70793 -109.09831 37102 ft 489 kts 43°
2026-04-30 08:58 57.75436 -109.00543 37087 ft 488 kts 43°
2026-04-30 08:59 57.80036 -108.91304 37101 ft 488 kts 43°
2026-04-30 08:59 57.84669 -108.81976 37098 ft 488 kts 43°
2026-04-30 09:00 57.89282 -108.72620 37085 ft 489 kts 43°
2026-04-30 09:00 57.93906 -108.63220 37102 ft 489 kts 43°
2026-04-30 09:01 57.98493 -108.53870 37089 ft 489 kts 43°
2026-04-30 09:01 58.03104 -108.44413 37089 ft 491 kts 44°
2026-04-30 09:02 58.10026 -108.30146 37104 ft 491 kts 44°
2026-04-30 09:02 58.14625 -108.20627 37096 ft 490 kts 44°
2026-04-30 09:03 58.19194 -108.11129 37108 ft 491 kts 44°
2026-04-30 09:03 58.23789 -108.01540 37101 ft 491 kts 44°
2026-04-30 09:04 58.28370 -107.91943 37098 ft 491 kts 44°
2026-04-30 09:04 58.32946 -107.82312 37114 ft 491 kts 44°
2026-04-30 09:05 58.37511 -107.72651 37098 ft 491 kts 44°
2026-04-30 09:05 58.42044 -107.63022 37105 ft 491 kts 44°
2026-04-30 09:06 58.46610 -107.53305 37108 ft 491 kts 44°
2026-04-30 09:06 58.51163 -107.43569 37095 ft 491 kts 44°
2026-04-30 09:07 58.55701 -107.33806 37109 ft 492 kts 44°
2026-04-30 09:07 58.60223 -107.24047 37103 ft 492 kts 45°
2026-04-30 09:08 58.64751 -107.14222 37098 ft 492 kts 45°
2026-04-30 09:08 58.69272 -107.04377 37112 ft 492 kts 45°
2026-04-30 09:09 58.73797 -106.94488 37098 ft 492 kts 45°
2026-04-30 09:09 58.78306 -106.84608 37105 ft 491 kts 45°
2026-04-30 09:10 58.82802 -106.74683 37106 ft 491 kts 45°
2026-04-30 09:10 58.87255 -106.64810 37098 ft 491 kts 45°
2026-04-30 09:11 58.91740 -106.54839 37112 ft 491 kts 45°
2026-04-30 09:11 58.96225 -106.44813 37100 ft 492 kts 45°
2026-04-30 09:12 59.00704 -106.34791 37102 ft 490 kts 44°
2026-04-30 09:12 59.02898 -106.29835 37113 ft 479 kts 43°
2026-04-30 09:12 59.05047 -106.24972 37093 ft 471 kts 43°
2026-04-30 09:13 59.09333 -106.15283 37105 ft 477 kts 43°
2026-04-30 09:13 59.13642 -106.05496 37095 ft 480 kts 44°
2026-04-30 09:14 59.17978 -105.95625 37091 ft 482 kts 44°
2026-04-30 09:14 59.22308 -105.85729 37109 ft 482 kts 44°
2026-04-30 09:15 59.26642 -105.75705 37104 ft 483 kts 44°
2026-04-30 09:15 59.30992 -105.65644 37095 ft 483 kts 44°
2026-04-30 09:16 59.35294 -105.55658 37099 ft 483 kts 45°
2026-04-30 09:16 59.39621 -105.45549 37111 ft 485 kts 45°
2026-04-30 09:17 59.43948 -105.35421 37091 ft 484 kts 45°
2026-04-30 09:17 59.48225 -105.25382 37105 ft 486 kts 45°
2026-04-30 09:18 59.52575 -105.15104 37106 ft 486 kts 45°
2026-04-30 09:18 59.56876 -105.04890 37096 ft 486 kts 45°
2026-04-30 09:19 59.61195 -104.94597 37111 ft 487 kts 45°
2026-04-30 09:19 59.65532 -104.84236 37102 ft 488 kts 46°
2026-04-30 09:20 59.69865 -104.73822 37105 ft 488 kts 46°
2026-04-30 09:20 59.74132 -104.63515 37115 ft 490 kts 46°
2026-04-30 09:21 59.77711 -104.54834 37105 ft 490 kts 46°
2026-04-30 09:21 59.82750 -104.42583 37117 ft 491 kts 46°
2026-04-30 09:22 59.87071 -104.32001 37112 ft 492 kts 46°
2026-04-30 09:22 59.91368 -104.21418 37114 ft 492 kts 46°
2026-04-30 09:23 59.95654 -104.10827 37121 ft 493 kts 47°
2026-04-30 09:23 60.00054 -104.00414 37115 ft 489 kts 42°
2026-04-30 09:24 60.04894 -103.90983 37115 ft 488 kts 39°
2026-04-30 09:24 60.09881 -103.81716 37118 ft 487 kts 38°
2026-04-30 09:25 60.14017 -103.74032 37127 ft 487 kts 39°
2026-04-30 09:25 60.18982 -103.64757 37120 ft 488 kts 39°
2026-04-30 09:26 60.23914 -103.55491 37124 ft 488 kts 39°
2026-04-30 09:26 60.29704 -103.44584 37129 ft 489 kts 39°
2026-04-30 09:27 60.33873 -103.36687 37124 ft 490 kts 39°
2026-04-30 09:27 60.38797 -103.27311 37130 ft 490 kts 39°
2026-04-30 09:28 60.44586 -103.16250 37137 ft 491 kts 39°
2026-04-30 09:28 60.49526 -103.06755 37125 ft 491 kts 39°
2026-04-30 09:29 60.53676 -102.98778 37139 ft 492 kts 39°
2026-04-30 09:29 60.58646 -102.89156 37138 ft 493 kts 40°
2026-04-30 09:30 60.63560 -102.79574 37131 ft 493 kts 40°
2026-04-30 09:30 60.68521 -102.69894 37144 ft 493 kts 40°
2026-04-30 09:31 60.73469 -102.60189 37142 ft 493 kts 40°
2026-04-30 09:31 60.79208 -102.48877 37142 ft 494 kts 40°
2026-04-30 09:32 60.83327 -102.40721 37153 ft 494 kts 40°
2026-04-30 09:32 60.88257 -102.30906 37143 ft 495 kts 40°
2026-04-30 09:33 60.93197 -102.21026 37151 ft 495 kts 40°
2026-04-30 09:33 60.98116 -102.11155 37154 ft 495 kts 40°
2026-04-30 09:34 61.03055 -102.01201 37170 ft 496 kts 41°
2026-04-30 09:34 61.07964 -101.91273 37173 ft 498 kts 41°
2026-04-30 09:35 61.12899 -101.81240 37164 ft 497 kts 41°
2026-04-30 09:35 61.17818 -101.71172 37177 ft 499 kts 41°
2026-04-30 09:36 61.22744 -101.61038 37177 ft 499 kts 41°
2026-04-30 09:36 61.27668 -101.50893 37171 ft 498 kts 41°
2026-04-30 09:37 61.32553 -101.40776 37186 ft 499 kts 41°
2026-04-30 09:37 61.37465 -101.30537 37179 ft 499 kts 41°
2026-04-30 09:38 61.42363 -101.20289 37182 ft 499 kts 41°
2026-04-30 09:38 61.47243 -101.10002 37190 ft 500 kts 42°
2026-04-30 09:39 61.52144 -100.99652 37195 ft 499 kts 42°
2026-04-30 09:39 61.57039 -100.89264 37220 ft 500 kts 42°
2026-04-30 09:40 61.61885 -100.78932 37232 ft 501 kts 42°
2026-04-30 09:40 61.66763 -100.68494 37223 ft 501 kts 42°
2026-04-30 09:41 61.71628 -100.58002 37230 ft 501 kts 42°
2026-04-30 09:41 61.76484 -100.47500 37236 ft 502 kts 42°
2026-04-30 09:42 61.81352 -100.36920 37224 ft 502 kts 42°
2026-04-30 09:42 61.86207 -100.26317 37236 ft 503 kts 43°
2026-04-30 09:43 61.91075 -100.15640 37236 ft 503 kts 43°
2026-04-30 09:43 61.95922 -100.04942 37230 ft 503 kts 43°
2026-04-30 09:44 62.00731 -99.94267 37244 ft 503 kts 43°
2026-04-30 09:44 62.05566 -99.83500 37233 ft 503 kts 43°
2026-04-30 09:45 62.10399 -99.72692 37241 ft 503 kts 43°
2026-04-30 09:45 62.15219 -99.61850 37246 ft 503 kts 43°
2026-04-30 09:46 62.20027 -99.50968 37235 ft 503 kts 43°
2026-04-30 09:46 62.24798 -99.40144 37249 ft 503 kts 43°
2026-04-30 09:47 62.29596 -99.29187 37247 ft 504 kts 43°
2026-04-30 09:47 62.34388 -99.18192 37240 ft 503 kts 43°
2026-04-30 09:48 62.39171 -99.07152 37255 ft 504 kts 44°
2026-04-30 09:48 62.43910 -98.96157 37246 ft 504 kts 44°
2026-04-30 09:49 62.48677 -98.85048 37248 ft 505 kts 44°
2026-04-30 09:49 62.53439 -98.73916 37258 ft 505 kts 44°
2026-04-30 09:50 62.58187 -98.62736 37246 ft 504 kts 44°
2026-04-30 09:50 62.62906 -98.51584 37260 ft 504 kts 44°
2026-04-30 09:51 62.67641 -98.40329 37251 ft 505 kts 44°
2026-04-30 09:51 62.72358 -98.29058 37240 ft 504 kts 44°
2026-04-30 09:52 62.77074 -98.17743 37254 ft 504 kts 44°
2026-04-30 09:52 62.81794 -98.06350 37247 ft 505 kts 44°
2026-04-30 09:53 62.86492 -97.94935 37248 ft 505 kts 45°
2026-04-30 09:53 62.91179 -97.83494 37258 ft 505 kts 45°
2026-04-30 09:54 62.95840 -97.72076 37246 ft 505 kts 45°
2026-04-30 09:54 63.00519 -97.60549 37257 ft 505 kts 45°
2026-04-30 09:55 63.05195 -97.48954 37257 ft 505 kts 45°
2026-04-30 09:55 63.09851 -97.37370 37250 ft 505 kts 45°
2026-04-30 09:56 63.14476 -97.25793 37264 ft 506 kts 45°
2026-04-30 09:56 63.19126 -97.14089 37257 ft 506 kts 45°
2026-04-30 09:57 63.23766 -97.02348 37257 ft 506 kts 45°
2026-04-30 09:57 63.28404 -96.90563 37267 ft 507 kts 45°
2026-04-30 09:58 63.33029 -96.78737 37255 ft 507 kts 46°
2026-04-30 09:58 63.37618 -96.66935 37263 ft 508 kts 46°
2026-04-30 09:59 63.46835 -96.43058 37258 ft 508 kts 46°
2026-04-30 10:00 63.53724 -96.25028 37270 ft 508 kts 46°
2026-04-30 10:01 63.60577 -96.06960 37265 ft 509 kts 46°
2026-04-30 10:02 63.67438 -95.88703 37266 ft 509 kts 46°
2026-04-30 10:02 63.72003 -95.76486 37262 ft 509 kts 46°
2026-04-30 10:03 63.76557 -95.64236 37274 ft 509 kts 46°
2026-04-30 10:03 63.81071 -95.52010 37262 ft 509 kts 47°
2026-04-30 10:04 63.85603 -95.39696 37269 ft 509 kts 47°
2026-04-30 10:04 63.90118 -95.27318 37270 ft 509 kts 47°
2026-04-30 10:05 63.94599 -95.14987 37262 ft 509 kts 47°
2026-04-30 10:05 63.98902 -95.02165 37279 ft 512 kts 53°
2026-04-30 10:06 64.02723 -94.88417 37265 ft 514 kts 56°
2026-04-30 10:06 64.06293 -94.74210 37254 ft 515 kts 58°
2026-04-30 10:07 64.09683 -94.59791 37265 ft 516 kts 59°
2026-04-30 10:07 64.13026 -94.45240 37256 ft 516 kts 59°
2026-04-30 10:08 64.16319 -94.30790 37251 ft 516 kts 59°
2026-04-30 10:08 64.19632 -94.16141 37258 ft 516 kts 59°
2026-04-30 10:09 64.22931 -94.01495 37245 ft 517 kts 60°
2026-04-30 10:09 64.26219 -93.86775 37252 ft 517 kts 60°
2026-04-30 10:10 64.29463 -93.72165 37246 ft 517 kts 60°
2026-04-30 10:10 64.32716 -93.57408 37244 ft 516 kts 60°
2026-04-30 10:11 64.35957 -93.42591 37248 ft 517 kts 60°
2026-04-30 10:11 64.39176 -93.27773 37233 ft 517 kts 60°
2026-04-30 10:12 64.42400 -93.12872 37242 ft 517 kts 60°
2026-04-30 10:12 64.45583 -92.98037 37246 ft 518 kts 61°
2026-04-30 10:13 64.48767 -92.83055 37235 ft 518 kts 61°
2026-04-30 10:13 64.51937 -92.68046 37233 ft 518 kts 61°
2026-04-30 10:14 64.55095 -92.52969 37237 ft 519 kts 61°
2026-04-30 10:14 64.59791 -92.30428 37224 ft 518 kts 62°
2026-04-30 10:15 64.62908 -92.15267 37235 ft 518 kts 62°
2026-04-30 10:15 64.66019 -92.00081 37216 ft 519 kts 62°
2026-04-30 10:16 64.69110 -91.84883 37183 ft 519 kts 62°
2026-04-30 10:17 64.73705 -91.62038 37158 ft 519 kts 62°
2026-04-30 10:17 64.78280 -91.39015 37167 ft 520 kts 63°
2026-04-30 10:18 64.81317 -91.23627 37155 ft 520 kts 63°
2026-04-30 10:19 64.85847 -91.00445 37162 ft 521 kts 63°
2026-04-30 10:19 64.88831 -90.85036 37154 ft 521 kts 63°
2026-04-30 10:20 64.91813 -90.69517 37148 ft 521 kts 63°
2026-04-30 10:20 64.96257 -90.46124 37152 ft 521 kts 63°
2026-04-30 10:21 64.99207 -90.30474 37142 ft 521 kts 63°
2026-04-30 10:21 65.02121 -90.14878 37153 ft 522 kts 64°
2026-04-30 10:22 65.05039 -89.99136 37143 ft 522 kts 64°
2026-04-30 10:22 65.07935 -89.83393 37140 ft 522 kts 64°
2026-04-30 10:23 65.10823 -89.67566 37132 ft 523 kts 64°
2026-04-30 10:23 65.13675 -89.51830 37110 ft 523 kts 64°
2026-04-30 10:24 65.16532 -89.35935 37099 ft 523 kts 65°
2026-04-30 10:24 65.19371 -89.19956 37104 ft 524 kts 65°
2026-04-30 10:25 65.22190 -89.04007 37100 ft 523 kts 65°
2026-04-30 10:25 65.24994 -88.88024 37097 ft 523 kts 65°
2026-04-30 10:26 65.27793 -88.71952 37107 ft 523 kts 65°
2026-04-30 10:26 65.30551 -88.55969 37092 ft 524 kts 65°
2026-04-30 10:27 65.33302 -88.39871 37096 ft 524 kts 66°
2026-04-30 10:27 65.36047 -88.23693 37096 ft 524 kts 66°
2026-04-30 10:28 65.38762 -88.07571 37086 ft 524 kts 66°
2026-04-30 10:28 65.41463 -87.91388 37097 ft 525 kts 66°
2026-04-30 10:29 65.44163 -87.75041 37089 ft 525 kts 66°
2026-04-30 10:29 65.46841 -87.58694 37088 ft 525 kts 66°
2026-04-30 10:30 65.49499 -87.42338 37091 ft 525 kts 67°
2026-04-30 10:30 65.52126 -87.26029 37081 ft 525 kts 67°
2026-04-30 10:31 65.54757 -87.09576 37090 ft 526 kts 67°
2026-04-30 10:31 65.57375 -86.93062 37088 ft 526 kts 68°
2026-04-30 10:32 65.59960 -86.76559 37074 ft 526 kts 68°
2026-04-30 10:32 65.62540 -86.59955 37090 ft 527 kts 68°
2026-04-30 10:33 65.65086 -86.43428 37078 ft 527 kts 68°
2026-04-30 10:33 65.67635 -86.26808 37085 ft 527 kts 68°
2026-04-30 10:34 65.70166 -86.10055 37085 ft 528 kts 68°
2026-04-30 10:34 65.72675 -85.93301 37074 ft 528 kts 69°
2026-04-30 10:35 65.75166 -85.76546 37086 ft 528 kts 69°
2026-04-30 10:35 65.77631 -85.59814 37078 ft 528 kts 69°
2026-04-30 10:36 65.80089 -85.42975 37075 ft 527 kts 69°
2026-04-30 10:36 65.82525 -85.26103 37087 ft 527 kts 69°
2026-04-30 10:37 65.84941 -85.09210 37074 ft 527 kts 69°
2026-04-30 10:37 65.87321 -84.92407 37083 ft 528 kts 70°
2026-04-30 10:38 65.89703 -84.75422 37083 ft 528 kts 70°
2026-04-30 10:38 65.92074 -84.58334 37489 ft 534 kts 70°
2026-04-30 10:39 65.93272 -84.49655 37918 ft 533 kts 70°
2026-04-30 10:39 65.94458 -84.41039 38313 ft 533 kts 70°
2026-04-30 10:39 65.95619 -84.32546 38713 ft 532 kts 70°
2026-04-30 10:39 65.96798 -84.23869 38929 ft 533 kts 70°
2026-04-30 10:40 65.97948 -84.15363 39051 ft 531 kts 70°
2026-04-30 10:40 65.99252 -84.06729 39071 ft 528 kts 66°
2026-04-30 10:40 66.02135 -83.90329 39080 ft 525 kts 64°
2026-04-30 10:41 66.05241 -83.74102 39084 ft 526 kts 63°
2026-04-30 10:41 66.08443 -83.57888 39074 ft 525 kts 62°
2026-04-30 10:42 66.11637 -83.41725 39084 ft 526 kts 63°
2026-04-30 10:42 66.14805 -83.25511 39074 ft 526 kts 63°
2026-04-30 10:43 66.17993 -83.09120 39064 ft 525 kts 63°
2026-04-30 10:43 66.21118 -82.92939 39077 ft 526 kts 63°
2026-04-30 10:44 66.24265 -82.76514 39072 ft 526 kts 63°
2026-04-30 10:44 66.27384 -82.60097 39067 ft 526 kts 64°
2026-04-30 10:45 66.30466 -82.43714 39080 ft 528 kts 64°
2026-04-30 10:45 66.33556 -82.27150 39068 ft 527 kts 64°
2026-04-30 10:46 66.36622 -82.10593 39072 ft 527 kts 64°
2026-04-30 10:46 66.39680 -81.93967 39078 ft 528 kts 64°
2026-04-30 10:47 66.42698 -81.77385 39066 ft 527 kts 64°
2026-04-30 10:47 66.45716 -81.60672 39064 ft 528 kts 65°
2026-04-30 10:48 66.48720 -81.43906 39070 ft 528 kts 65°
2026-04-30 10:48 66.51705 -81.27114 39062 ft 528 kts 65°
2026-04-30 10:49 66.54676 -81.10256 39070 ft 528 kts 65°
2026-04-30 10:49 66.57602 -80.93496 39066 ft 528 kts 65°
2026-04-30 10:50 66.60533 -80.76567 39064 ft 528 kts 65°
2026-04-30 10:50 66.63453 -80.59568 39073 ft 528 kts 66°
2026-04-30 10:51 66.66348 -80.42553 39064 ft 529 kts 66°
2026-04-30 10:51 66.69228 -80.25489 39062 ft 529 kts 66°
2026-04-30 10:52 66.72095 -80.08342 39075 ft 530 kts 66°
2026-04-30 10:52 66.74921 -79.91290 39060 ft 529 kts 66°
2026-04-30 10:53 66.77743 -79.74098 39072 ft 529 kts 66°
2026-04-30 10:53 66.80558 -79.56831 39066 ft 529 kts 67°
2026-04-30 10:54 66.83352 -79.39560 39064 ft 529 kts 67°
2026-04-30 10:54 66.86107 -79.22334 39076 ft 529 kts 67°
2026-04-30 10:55 66.88855 -79.05001 39057 ft 529 kts 67°
2026-04-30 10:55 66.91592 -78.87538 39072 ft 529 kts 68°
2026-04-30 10:56 66.94306 -78.70111 39066 ft 530 kts 68°
2026-04-30 10:56 66.96992 -78.52708 39064 ft 529 kts 68°
2026-04-30 10:57 66.99669 -78.35196 39076 ft 530 kts 68°
2026-04-30 10:57 67.02328 -78.17632 39061 ft 529 kts 68°
2026-04-30 10:58 67.04968 -78.00015 39073 ft 530 kts 69°
2026-04-30 10:58 67.07595 -77.82336 39067 ft 531 kts 69°
2026-04-30 10:59 67.10195 -77.64640 39054 ft 530 kts 69°
2026-04-30 10:59 67.12770 -77.46948 39071 ft 531 kts 69°
2026-04-30 11:00 67.15330 -77.29170 39057 ft 531 kts 69°
2026-04-30 11:00 67.17877 -77.11357 39068 ft 531 kts 70°
2026-04-30 11:01 67.20406 -76.93461 39062 ft 531 kts 70°
2026-04-30 11:01 67.22894 -76.75681 39058 ft 531 kts 70°
2026-04-30 11:02 67.25385 -76.57714 39070 ft 531 kts 70°
2026-04-30 11:02 67.27848 -76.39736 39055 ft 531 kts 70°
2026-04-30 11:03 67.30302 -76.21662 39061 ft 531 kts 70°
2026-04-30 11:04 67.33931 -75.94619 39049 ft 531 kts 71°
2026-04-30 11:04 67.36325 -75.76504 39062 ft 531 kts 71°
2026-04-30 11:05 67.38696 -75.58364 39054 ft 531 kts 71°
2026-04-30 11:05 67.41059 -75.40165 39035 ft 531 kts 71°
2026-04-30 11:06 67.43391 -75.21919 39023 ft 531 kts 71°
2026-04-30 11:06 67.45686 -75.03827 39036 ft 531 kts 71°
2026-04-30 11:07 67.47987 -74.85483 39027 ft 532 kts 72°
2026-04-30 11:07 67.50263 -74.67120 39025 ft 531 kts 72°
2026-04-30 11:08 67.52515 -74.48759 39030 ft 532 kts 72°
2026-04-30 11:08 67.54734 -74.30470 39026 ft 531 kts 72°
2026-04-30 11:09 67.56951 -74.11969 39034 ft 531 kts 72°
2026-04-30 11:09 67.59144 -73.93485 39025 ft 531 kts 73°
2026-04-30 11:10 67.61308 -73.75014 39027 ft 531 kts 73°
2026-04-30 11:10 67.63450 -73.56538 39036 ft 531 kts 73°
2026-04-30 11:11 67.65570 -73.38012 39022 ft 531 kts 73°
2026-04-30 11:11 67.67688 -73.19307 39042 ft 532 kts 73°
2026-04-30 11:12 67.69769 -73.00628 39058 ft 533 kts 74°
2026-04-30 11:12 67.71836 -72.81891 39052 ft 532 kts 74°
2026-04-30 11:13 67.73881 -72.63153 39055 ft 532 kts 74°
2026-04-30 11:13 67.75900 -72.44505 39054 ft 533 kts 74°
2026-04-30 11:14 67.77908 -72.25664 39046 ft 532 kts 74°
2026-04-30 11:14 67.79883 -72.06851 39060 ft 533 kts 75°
2026-04-30 11:15 67.81850 -71.87922 39045 ft 532 kts 75°
2026-04-30 11:15 67.83775 -71.69134 39056 ft 532 kts 75°
2026-04-30 11:16 67.85690 -71.50215 39052 ft 532 kts 75°
2026-04-30 11:16 67.87591 -71.31187 39048 ft 533 kts 75°
2026-04-30 11:17 67.89468 -71.12205 39035 ft 533 kts 75°
2026-04-30 11:17 67.91321 -70.93140 39025 ft 533 kts 76°
2026-04-30 11:18 67.93141 -70.74147 39039 ft 534 kts 76°
2026-04-30 11:18 67.95849 -70.45404 39032 ft 533 kts 76°
2026-04-30 11:19 67.97618 -70.26260 39038 ft 533 kts 76°
2026-04-30 11:19 67.99451 -70.07185 39027 ft 533 kts 75°
2026-04-30 11:20 68.01468 -69.88177 39037 ft 533 kts 74°
2026-04-30 11:20 68.03569 -69.69190 39037 ft 534 kts 73°
2026-04-30 11:21 68.05693 -69.50293 39040 ft 533 kts 73°
2026-04-30 11:21 68.07821 -69.31320 39049 ft 532 kts 73°
2026-04-30 11:22 68.09925 -69.12340 39039 ft 532 kts 73°
2026-04-30 11:22 68.12006 -68.93297 39061 ft 533 kts 73°
2026-04-30 11:23 68.14070 -68.74187 39070 ft 533 kts 74°
2026-04-30 11:24 68.17109 -68.45643 39051 ft 532 kts 74°
2026-04-30 11:24 68.19113 -68.26440 39060 ft 534 kts 74°
2026-04-30 11:25 68.22079 -67.97587 39043 ft 533 kts 75°
2026-04-30 11:26 68.25950 -67.59138 39056 ft 534 kts 75°
2026-04-30 11:26 68.27856 -67.39767 39047 ft 533 kts 75°
2026-04-30 11:27 68.29731 -67.20500 39061 ft 533 kts 75°
2026-04-30 11:27 68.31580 -67.01183 39053 ft 533 kts 76°
2026-04-30 11:28 68.34326 -66.72077 39061 ft 533 kts 76°
2026-04-30 11:29 68.36128 -66.52579 39051 ft 533 kts 76°
2026-04-30 11:29 68.38786 -66.23369 39059 ft 532 kts 76°
2026-04-30 11:30 68.41389 -65.94236 39051 ft 533 kts 76°
2026-04-30 11:31 68.43100 -65.74633 39063 ft 533 kts 77°
2026-04-30 11:31 68.44789 -65.55000 39057 ft 533 kts 77°
2026-04-30 11:32 68.46444 -65.35502 39049 ft 533 kts 77°
2026-04-30 11:32 68.47826 -65.19016 39057 ft 533 kts 77°
2026-04-30 11:33 68.50516 -64.86294 39051 ft 532 kts 77°
2026-04-30 11:33 68.52102 -64.66572 39060 ft 533 kts 77°
2026-04-30 11:34 68.53663 -64.46807 39057 ft 533 kts 78°
2026-04-30 11:34 68.55202 -64.27029 39050 ft 532 kts 78°
2026-04-30 11:35 68.56708 -64.07337 39065 ft 533 kts 78°
2026-04-30 11:35 68.57963 -63.90674 39054 ft 533 kts 78°
2026-04-30 11:36 68.59419 -63.71005 39046 ft 533 kts 78°
2026-04-30 11:36 68.60868 -63.51068 39065 ft 533 kts 78°
2026-04-30 11:37 68.62522 -63.27943 39050 ft 531 kts 79°
2026-04-30 11:37 68.63915 -63.08067 39053 ft 532 kts 79°
2026-04-30 11:38 68.65062 -62.91474 39059 ft 532 kts 79°
2026-04-30 11:38 68.66416 -62.71524 39040 ft 532 kts 79°
2026-04-30 11:39 68.67743 -62.51550 39046 ft 532 kts 79°
2026-04-30 11:39 68.69048 -62.31564 39049 ft 532 kts 79°
2026-04-30 11:40 68.70324 -62.11664 39035 ft 532 kts 80°
2026-04-30 11:40 68.71583 -61.91623 39042 ft 532 kts 80°
2026-04-30 11:41 68.72818 -61.71535 39042 ft 532 kts 80°
2026-04-30 11:41 68.74032 -61.51449 39036 ft 532 kts 80°
2026-04-30 11:42 68.75222 -61.31307 39049 ft 532 kts 81°
2026-04-30 11:42 68.76388 -61.11216 39032 ft 532 kts 81°
2026-04-30 11:43 68.77522 -60.91189 39043 ft 532 kts 81°
2026-04-30 11:43 68.78640 -60.70986 39037 ft 532 kts 81°
2026-04-30 11:44 68.79726 -60.50756 39032 ft 532 kts 81°
2026-04-30 11:44 68.80794 -60.30520 39042 ft 533 kts 82°
2026-04-30 11:45 68.81840 -60.10272 39031 ft 533 kts 82°
2026-04-30 11:45 68.82857 -59.90071 39033 ft 533 kts 82°
2026-04-30 11:46 68.83853 -59.69754 39036 ft 533 kts 82°
2026-04-30 11:46 68.84825 -59.49465 39022 ft 531 kts 82°
2026-04-30 11:47 68.85768 -59.29306 39032 ft 532 kts 82°
2026-04-30 11:47 68.86689 -59.09027 39025 ft 532 kts 82°
2026-04-30 11:48 68.87590 -58.88613 39022 ft 532 kts 83°
2026-04-30 11:48 68.88463 -58.68238 39027 ft 532 kts 83°
2026-04-30 11:49 68.89312 -58.47896 39018 ft 532 kts 83°
2026-04-30 11:49 68.90133 -58.27646 39018 ft 532 kts 83°
2026-04-30 11:50 68.90934 -58.07191 39018 ft 532 kts 84°
2026-04-30 11:50 68.91712 -57.86775 39010 ft 532 kts 84°
2026-04-30 11:51 68.92462 -57.66467 39021 ft 532 kts 84°
2026-04-30 11:51 68.93191 -57.46060 39006 ft 532 kts 84°
2026-04-30 11:52 68.93896 -57.25592 39016 ft 532 kts 84°
2026-04-30 11:52 68.94575 -57.05091 39009 ft 532 kts 84°
2026-04-30 11:53 68.95230 -56.84606 39002 ft 532 kts 85°
2026-04-30 11:53 68.95860 -56.64125 39015 ft 531 kts 85°
2026-04-30 11:54 68.96460 -56.43751 39002 ft 531 kts 85°
2026-04-30 11:54 68.97040 -56.23308 39003 ft 531 kts 85°
2026-04-30 11:55 68.97599 -56.02792 39009 ft 531 kts 85°
2026-04-30 11:55 68.98132 -55.82288 38996 ft 531 kts 85°
2026-04-30 11:56 68.98637 -55.61720 39009 ft 531 kts 86°
2026-04-30 11:56 68.99111 -55.41354 38994 ft 531 kts 86°
2026-04-30 11:57 68.99569 -55.20857 38997 ft 531 kts 86°
2026-04-30 11:57 68.99913 -55.00211 39012 ft 532 kts 88°
2026-04-30 11:58 68.99970 -54.79736 38990 ft 531 kts 90°
2026-04-30 11:58 68.99710 -54.59005 39001 ft 532 kts 93°
2026-04-30 11:59 68.99255 -54.38554 38993 ft 532 kts 94°
2026-04-30 11:59 68.98733 -54.18033 38994 ft 532 kts 94°
2026-04-30 12:00 68.98193 -53.97488 39000 ft 532 kts 94°
2026-04-30 12:00 68.97626 -53.76916 38986 ft 532 kts 95°
2026-04-30 12:01 68.97035 -53.56358 38999 ft 532 kts 95°
2026-04-30 12:01 68.96429 -53.36001 38991 ft 532 kts 95°
2026-04-30 12:02 68.95793 -53.15522 38997 ft 532 kts 95°
2026-04-30 12:02 68.95127 -52.94981 38997 ft 532 kts 95°
2026-04-30 12:03 68.94098 -52.64385 38995 ft 532 kts 96°
2026-04-30 12:04 68.93370 -52.43936 38996 ft 532 kts 96°
2026-04-30 12:04 68.92614 -52.23449 38988 ft 532 kts 96°
2026-04-30 12:05 68.91841 -52.03069 39000 ft 532 kts 96°
2026-04-30 12:05 68.91038 -51.82556 38986 ft 532 kts 96°
2026-04-30 12:06 68.90222 -51.62307 38998 ft 532 kts 97°
2026-04-30 12:06 68.89376 -51.41918 38992 ft 532 kts 97°
2026-04-30 12:07 68.88503 -51.21518 38988 ft 532 kts 97°
2026-04-30 12:07 68.87607 -51.01122 38998 ft 532 kts 97°
2026-04-30 12:08 68.86693 -50.80918 38985 ft 532 kts 97°
2026-04-30 12:08 68.85749 -50.60567 38995 ft 532 kts 97°
2026-04-30 12:09 68.84778 -50.40273 38996 ft 533 kts 98°
2026-04-30 12:09 68.83779 -50.19924 38986 ft 532 kts 98°
2026-04-30 12:10 68.82765 -49.99659 38998 ft 532 kts 98°
2026-04-30 12:10 68.81725 -49.79364 38989 ft 533 kts 98°
2026-04-30 12:11 68.80669 -49.59267 38988 ft 532 kts 98°
2026-04-30 12:11 68.79576 -49.39032 38998 ft 532 kts 99°
2026-04-30 12:12 68.78465 -49.18850 38981 ft 531 kts 99°
2026-04-30 12:12 68.77338 -48.98797 38992 ft 533 kts 99°
2026-04-30 12:13 68.76171 -48.78630 38987 ft 532 kts 99°
2026-04-30 12:13 68.74989 -48.58495 38984 ft 532 kts 99°
2026-04-30 12:14 68.73776 -48.38354 38993 ft 533 kts 100°
2026-04-30 12:14 68.72543 -48.18207 38980 ft 533 kts 100°
2026-04-30 12:15 68.71283 -47.98095 38988 ft 533 kts 101°
2026-04-30 12:15 68.70002 -47.78106 38989 ft 534 kts 101°
2026-04-30 12:16 68.68699 -47.58062 38975 ft 533 kts 101°
2026-04-30 12:16 68.67368 -47.38007 38989 ft 533 kts 101°
2026-04-30 12:17 68.65331 -47.07947 38980 ft 533 kts 101°
2026-04-30 12:17 68.63954 -46.88113 38981 ft 533 kts 102°
2026-04-30 12:18 68.62538 -46.68148 38989 ft 534 kts 102°
2026-04-30 12:18 68.61092 -46.48112 38975 ft 535 kts 102°
2026-04-30 12:19 68.59637 -46.28294 38985 ft 535 kts 102°
2026-04-30 12:19 68.58142 -46.08252 38981 ft 536 kts 102°
2026-04-30 12:20 68.56636 -45.88402 38975 ft 536 kts 103°
2026-04-30 12:20 68.55094 -45.68468 38986 ft 536 kts 103°
2026-04-30 12:21 68.53534 -45.48595 38976 ft 535 kts 103°
2026-04-30 12:21 68.51953 -45.28795 38965 ft 535 kts 103°
2026-04-30 12:22 68.50349 -45.09119 38956 ft 535 kts 103°
2026-04-30 12:22 68.48722 -44.89387 38937 ft 534 kts 103°
2026-04-30 12:23 68.47080 -44.69648 38953 ft 535 kts 103°
2026-04-30 12:23 68.45402 -44.49865 38939 ft 535 kts 104°
2026-04-30 12:24 68.43712 -44.30310 38932 ft 535 kts 104°
2026-04-30 12:24 68.41989 -44.10663 38941 ft 535 kts 104°
2026-04-30 12:25 68.40245 -43.90997 38930 ft 536 kts 104°
2026-04-30 12:25 68.38481 -43.71423 38924 ft 535 kts 104°
2026-04-30 12:26 68.36694 -43.51948 38934 ft 535 kts 105°
2026-04-30 12:26 68.34886 -43.32442 38918 ft 535 kts 105°
2026-04-30 12:27 68.33051 -43.12922 38903 ft 534 kts 105°
2026-04-30 12:27 68.31192 -42.93481 38898 ft 535 kts 105°
2026-04-30 12:28 68.29305 -42.73998 38895 ft 535 kts 105°
2026-04-30 12:28 68.27424 -42.54727 38894 ft 534 kts 106°
2026-04-30 12:29 68.25500 -42.35374 38885 ft 534 kts 106°
2026-04-30 12:29 68.23548 -42.16044 38890 ft 536 kts 106°
2026-04-30 12:30 68.21574 -41.96727 38879 ft 535 kts 107°
2026-04-30 12:30 68.19591 -41.77529 38875 ft 535 kts 107°
2026-04-30 12:31 68.17571 -41.58253 38875 ft 535 kts 107°
2026-04-30 12:31 68.15537 -41.39035 38864 ft 535 kts 107°
2026-04-30 12:32 68.13493 -41.19993 38867 ft 534 kts 107°
2026-04-30 12:32 68.11402 -41.00722 38864 ft 536 kts 107°
2026-04-30 12:33 68.09303 -40.81670 38848 ft 536 kts 108°
2026-04-30 12:33 68.07174 -40.62593 38857 ft 536 kts 108°
2026-04-30 12:34 68.05019 -40.43536 38850 ft 537 kts 108°
2026-04-30 12:34 68.02831 -40.24404 38843 ft 538 kts 108°
2026-04-30 12:35 68.00669 -40.05426 38850 ft 538 kts 108°
2026-04-30 12:35 67.98602 -39.86286 38834 ft 538 kts 107°
2026-04-30 12:36 67.96570 -39.67113 38837 ft 538 kts 107°
2026-04-30 12:36 67.94528 -39.47920 38838 ft 539 kts 107°
2026-04-30 12:37 67.92473 -39.28839 38826 ft 539 kts 107°
2026-04-30 12:37 67.90389 -39.09700 38830 ft 540 kts 108°
2026-04-30 12:38 67.88283 -38.90617 38825 ft 540 kts 108°
2026-04-30 12:38 67.86144 -38.71476 38815 ft 540 kts 108°
2026-04-30 12:39 67.83990 -38.52407 38821 ft 540 kts 108°
2026-04-30 12:39 67.81831 -38.33532 38813 ft 539 kts 108°
2026-04-30 12:40 67.79638 -38.14591 38816 ft 539 kts 108°
2026-04-30 12:40 67.77414 -37.95647 38811 ft 538 kts 109°
2026-04-30 12:41 67.75176 -37.76790 38806 ft 539 kts 109°
2026-04-30 12:41 67.72911 -37.57931 38819 ft 540 kts 109°
2026-04-30 12:42 67.70640 -37.39226 38804 ft 540 kts 109°
2026-04-30 12:42 67.68332 -37.20381 38817 ft 541 kts 109°
2026-04-30 12:43 67.66002 -37.01596 38799 ft 540 kts 110°
2026-04-30 12:43 67.63655 -36.82901 38781 ft 539 kts 110°
2026-04-30 12:44 67.61278 -36.64203 38780 ft 539 kts 110°
2026-04-30 12:44 67.58903 -36.45701 38785 ft 539 kts 110°
2026-04-30 12:45 67.56499 -36.27150 38771 ft 538 kts 110°
2026-04-30 12:45 67.54074 -36.08646 38784 ft 538 kts 110°
2026-04-30 12:46 67.51633 -35.90254 38774 ft 538 kts 111°
2026-04-30 12:46 67.49160 -35.71811 38776 ft 538 kts 111°
2026-04-30 12:47 67.46663 -35.53405 38781 ft 540 kts 111°
2026-04-30 12:47 67.44143 -35.34938 38768 ft 541 kts 111°
2026-04-30 12:48 67.41620 -35.16649 38780 ft 542 kts 111°
2026-04-30 12:48 67.39046 -34.98231 38773 ft 542 kts 112°
2026-04-30 12:49 67.36443 -34.79786 38771 ft 543 kts 112°
2026-04-30 12:49 67.33821 -34.61431 38779 ft 543 kts 112°
2026-04-30 12:50 67.31184 -34.43088 38767 ft 544 kts 112°
2026-04-30 12:50 67.28517 -34.24764 38777 ft 544 kts 112°
2026-04-30 12:51 67.25843 -34.06584 38774 ft 544 kts 112°
2026-04-30 12:51 67.23142 -33.88362 38767 ft 543 kts 112°
2026-04-30 12:52 67.20418 -33.70203 38781 ft 543 kts 113°
2026-04-30 12:52 67.17672 -33.52061 38766 ft 543 kts 113°
2026-04-30 12:53 67.14905 -33.33968 38771 ft 542 kts 113°
2026-04-30 12:53 67.12144 -33.16073 38775 ft 541 kts 113°
2026-04-30 12:54 67.09350 -32.98131 38765 ft 541 kts 114°
2026-04-30 12:54 67.06537 -32.80242 38776 ft 540 kts 114°
2026-04-30 12:55 67.03702 -32.62378 38769 ft 540 kts 114°
2026-04-30 12:55 67.00877 -32.44733 38765 ft 539 kts 114°
2026-04-30 12:56 66.98008 -32.27035 38778 ft 539 kts 114°
2026-04-30 12:56 66.95125 -32.09365 38764 ft 539 kts 115°
2026-04-30 12:57 66.92227 -31.91780 38772 ft 538 kts 115°
2026-04-30 12:57 66.89325 -31.74335 38769 ft 538 kts 115°
2026-04-30 12:58 66.86389 -31.56807 38763 ft 538 kts 115°
2026-04-30 12:58 66.83437 -31.39343 38777 ft 539 kts 115°
2026-04-30 12:59 66.80466 -31.21922 38762 ft 538 kts 115°
2026-04-30 12:59 66.77468 -31.04525 38767 ft 537 kts 115°
2026-04-30 13:00 66.74478 -30.87333 38772 ft 538 kts 116°
2026-04-30 13:00 66.71451 -30.70061 38759 ft 538 kts 116°
2026-04-30 13:01 66.68399 -30.52814 38767 ft 538 kts 116°
2026-04-30 13:01 66.65328 -30.35602 38767 ft 539 kts 116°
2026-04-30 13:02 66.62262 -30.18546 38759 ft 538 kts 116°
2026-04-30 13:02 66.59156 -30.01411 38769 ft 539 kts 116°
2026-04-30 13:03 66.56022 -29.84277 38757 ft 538 kts 117°
2026-04-30 13:03 66.52874 -29.67235 38759 ft 538 kts 117°
2026-04-30 13:04 66.49738 -29.50369 38765 ft 538 kts 117°
2026-04-30 13:04 66.46564 -29.33444 38751 ft 536 kts 117°
2026-04-30 13:05 66.43385 -29.16630 38763 ft 536 kts 117°
2026-04-30 13:06 66.38590 -28.91542 38749 ft 534 kts 118°
2026-04-30 13:06 66.35380 -28.74886 38759 ft 534 kts 118°
2026-04-30 13:07 66.32141 -28.58259 38756 ft 533 kts 118°
2026-04-30 13:07 66.28881 -28.41667 38747 ft 532 kts 118°
2026-04-30 13:08 66.25618 -28.25184 38759 ft 532 kts 118°
2026-04-30 13:08 66.22364 -28.08848 38748 ft 532 kts 118°
2026-04-30 13:09 66.19067 -27.92442 38746 ft 532 kts 119°
2026-04-30 13:09 66.15751 -27.76053 38756 ft 532 kts 119°
2026-04-30 13:10 66.12422 -27.59749 38742 ft 531 kts 119°
2026-04-30 13:10 66.09076 -27.43515 38740 ft 531 kts 119°
2026-04-30 13:11 66.05734 -27.27391 38721 ft 532 kts 120°
2026-04-30 13:11 66.02361 -27.11221 38717 ft 531 kts 120°
2026-04-30 13:12 65.98981 -26.95144 38727 ft 531 kts 120°
2026-04-30 13:12 65.95595 -26.79126 38717 ft 532 kts 120°
2026-04-30 13:13 65.90476 -26.55115 38725 ft 530 kts 121°
2026-04-30 13:14 65.85313 -26.31174 38711 ft 529 kts 121°
2026-04-30 13:14 65.80127 -26.07392 38727 ft 529 kts 121°
2026-04-30 13:15 65.74932 -25.83858 38714 ft 528 kts 121°
2026-04-30 13:16 65.71436 -25.68144 38725 ft 528 kts 122°
2026-04-30 13:16 65.67928 -25.52487 38717 ft 529 kts 122°
2026-04-30 13:17 65.62623 -25.29036 38724 ft 529 kts 122°
2026-04-30 13:18 65.57301 -25.05752 38749 ft 530 kts 122°
2026-04-30 13:18 65.51924 -24.82491 38732 ft 529 kts 123°
2026-04-30 13:19 65.48318 -24.67024 38743 ft 529 kts 123°
2026-04-30 13:19 65.44703 -24.51635 38735 ft 530 kts 123°
2026-04-30 13:20 65.41082 -24.36324 38734 ft 529 kts 123°
2026-04-30 13:20 65.37432 -24.21003 38741 ft 529 kts 123°
2026-04-30 13:21 65.33767 -24.05736 38730 ft 529 kts 124°
2026-04-30 13:22 65.28234 -23.82871 38743 ft 530 kts 124°
2026-04-30 13:22 65.22683 -23.60167 38732 ft 530 kts 124°
2026-04-30 13:23 65.17077 -23.37508 38735 ft 530 kts 124°
2026-04-30 13:24 65.09534 -23.07415 38747 ft 531 kts 125°
2026-04-30 13:25 65.01973 -22.77517 38770 ft 530 kts 125°
2026-04-30 13:26 64.92393 -22.40294 38803 ft 530 kts 126°
2026-04-30 13:28 64.82758 -22.03470 38843 ft 530 kts 126°
2026-04-30 13:28 64.76912 -21.81442 38841 ft 529 kts 127°
2026-04-30 13:29 64.69110 -21.52345 38866 ft 529 kts 127°
2026-04-30 13:31 64.59240 -21.16109 38866 ft 529 kts 127°
2026-04-30 13:32 64.49300 -20.80223 38864 ft 529 kts 127°
2026-04-30 13:33 64.41286 -20.51640 38861 ft 529 kts 128°
2026-04-30 13:34 64.35224 -20.30298 38866 ft 529 kts 128°
2026-04-30 13:35 64.27119 -20.02046 38876 ft 530 kts 128°
2026-04-30 13:36 64.18939 -19.73916 38870 ft 529 kts 128°
2026-04-30 13:36 64.12814 -19.53068 38881 ft 527 kts 129°
2026-04-30 13:37 64.06649 -19.32271 38895 ft 525 kts 129°
2026-04-30 13:38 64.00495 -19.11689 38882 ft 521 kts 129°
2026-04-30 13:39 63.92324 -18.84695 38887 ft 518 kts 130°
2026-04-30 13:40 63.86182 -18.64621 38897 ft 514 kts 130°
2026-04-30 13:40 63.82087 -18.51336 38888 ft 514 kts 130°
2026-04-30 13:41 63.77999 -18.38113 38890 ft 512 kts 130°
2026-04-30 13:41 63.73940 -18.25072 38898 ft 512 kts 130°
2026-04-30 13:42 63.69820 -18.11953 38883 ft 511 kts 131°
2026-04-30 13:42 63.63661 -17.92425 38902 ft 510 kts 131°
2026-04-30 13:43 63.59535 -17.79437 38901 ft 510 kts 131°
2026-04-30 13:43 63.55422 -17.66584 38891 ft 510 kts 131°
2026-04-30 13:44 63.51268 -17.53660 38905 ft 510 kts 131°
2026-04-30 13:44 63.47115 -17.40813 38902 ft 510 kts 131°
2026-04-30 13:45 63.40884 -17.21689 38901 ft 509 kts 131°
2026-04-30 13:46 63.36709 -17.08958 38908 ft 509 kts 132°
2026-04-30 13:46 63.32515 -16.96256 38893 ft 508 kts 132°
2026-04-30 13:47 63.29034 -16.85741 38903 ft 508 kts 132°
2026-04-30 13:47 63.24835 -16.73133 38909 ft 508 kts 132°
2026-04-30 13:48 63.20636 -16.60608 38895 ft 508 kts 132°
2026-04-30 13:48 63.16414 -16.48082 38909 ft 508 kts 132°
2026-04-30 13:49 63.12185 -16.35604 38907 ft 508 kts 133°
2026-04-30 13:49 63.07919 -16.23084 38902 ft 506 kts 133°
2026-04-30 13:50 63.03675 -16.10681 38916 ft 506 kts 133°
2026-04-30 13:50 62.97822 -15.91310 38912 ft 511 kts 126°
2026-04-30 13:51 62.94310 -15.77773 38911 ft 511 kts 125°
2026-04-30 13:51 62.90843 -15.64225 38921 ft 512 kts 125°
2026-04-30 13:52 62.87322 -15.50549 38915 ft 511 kts 125°
2026-04-30 13:52 62.83810 -15.37039 38917 ft 510 kts 126°
2026-04-30 13:53 62.80308 -15.23671 38926 ft 510 kts 126°
2026-04-30 13:53 62.76772 -15.10239 38923 ft 510 kts 126°
2026-04-30 13:54 62.73231 -14.96872 38915 ft 509 kts 126°
2026-04-30 13:54 62.69673 -14.83507 38934 ft 509 kts 126°
2026-04-30 13:55 62.66112 -14.70215 38922 ft 508 kts 126°
2026-04-30 13:55 62.62564 -14.57060 38930 ft 507 kts 126°
2026-04-30 13:56 62.58978 -14.43863 38937 ft 507 kts 126°
2026-04-30 13:56 62.55385 -14.30701 38930 ft 507 kts 126°
2026-04-30 13:57 62.51799 -14.17607 38963 ft 505 kts 126°
2026-04-30 13:57 62.48197 -14.04537 38983 ft 506 kts 126°
2026-04-30 13:58 62.42765 -13.85009 39003 ft 505 kts 127°
2026-04-30 13:59 62.39164 -13.72125 39003 ft 505 kts 127°
2026-04-30 13:59 62.35520 -13.59189 39011 ft 504 kts 127°
2026-04-30 14:00 62.31875 -13.46336 39022 ft 503 kts 127°
2026-04-30 14:00 62.26389 -13.27088 39023 ft 503 kts 127°
2026-04-30 14:01 62.22746 -13.14417 39036 ft 503 kts 127°
2026-04-30 14:01 62.19066 -13.01672 39040 ft 501 kts 128°
2026-04-30 14:02 62.15389 -12.89006 39042 ft 501 kts 128°
2026-04-30 14:02 62.11711 -12.76411 39052 ft 500 kts 128°
2026-04-30 14:03 62.08017 -12.63827 39055 ft 499 kts 128°
2026-04-30 14:03 62.04317 -12.51304 39063 ft 499 kts 128°
2026-04-30 14:04 62.00638 -12.38907 39071 ft 497 kts 128°
2026-04-30 14:04 61.96933 -12.26499 39073 ft 497 kts 128°
2026-04-30 14:05 61.93228 -12.14149 39078 ft 497 kts 128°
2026-04-30 14:05 61.89503 -12.01806 39087 ft 497 kts 128°
2026-04-30 14:06 61.83893 -11.83341 39092 ft 496 kts 128°
2026-04-30 14:07 61.78289 -11.65054 39095 ft 496 kts 129°
2026-04-30 14:08 61.72642 -11.46753 39110 ft 496 kts 129°
2026-04-30 14:08 61.66996 -11.28606 39108 ft 495 kts 129°
2026-04-30 14:09 61.63191 -11.16460 39126 ft 494 kts 129°
2026-04-30 14:10 61.57522 -10.98508 39124 ft 494 kts 129°
2026-04-30 14:10 61.53719 -10.86524 39130 ft 493 kts 129°
2026-04-30 14:11 61.49905 -10.74556 39140 ft 493 kts 129°
2026-04-30 14:11 61.46113 -10.62718 39130 ft 493 kts 129°
2026-04-30 14:12 61.42284 -10.50851 39137 ft 493 kts 129°
2026-04-30 14:12 61.38435 -10.38973 39144 ft 493 kts 130°
2026-04-30 14:13 61.34596 -10.27179 39139 ft 493 kts 130°
2026-04-30 14:13 61.30732 -10.15370 39149 ft 493 kts 130°
2026-04-30 14:14 61.26878 -10.03668 39149 ft 493 kts 130°
2026-04-30 14:14 61.23005 -9.91953 39144 ft 491 kts 130°
2026-04-30 14:15 61.19124 -9.80271 39157 ft 492 kts 130°
2026-04-30 14:15 61.15229 -9.68600 39145 ft 492 kts 130°
2026-04-30 14:16 61.11330 -9.56989 39154 ft 491 kts 130°
2026-04-30 14:16 61.07438 -9.45479 39156 ft 492 kts 130°
2026-04-30 14:17 61.03527 -9.33945 39145 ft 491 kts 130°
2026-04-30 14:17 60.99599 -9.22405 39161 ft 491 kts 130°
2026-04-30 14:18 60.95658 -9.10914 39151 ft 490 kts 131°
2026-04-30 14:18 60.89757 -8.93769 39164 ft 490 kts 131°
2026-04-30 14:19 60.83850 -8.76742 39155 ft 490 kts 131°
2026-04-30 14:20 60.79892 -8.65417 39165 ft 490 kts 131°
2026-04-30 14:20 60.73925 -8.48455 39158 ft 489 kts 131°
2026-04-30 14:21 60.69970 -8.37253 39165 ft 489 kts 131°
2026-04-30 14:22 60.63988 -8.20434 39163 ft 489 kts 131°
2026-04-30 14:22 60.57979 -8.03662 39172 ft 489 kts 131°
2026-04-30 14:23 60.49971 -7.81490 39164 ft 488 kts 132°
2026-04-30 14:24 60.43923 -7.64861 39176 ft 489 kts 131°
2026-04-30 14:25 60.35950 -7.42760 39176 ft 487 kts 131°
2026-04-30 14:26 60.29942 -7.26229 39180 ft 487 kts 132°
2026-04-30 14:27 60.23903 -7.09745 39212 ft 487 kts 132°
2026-04-30 14:27 60.19868 -6.98791 39224 ft 487 kts 132°
2026-04-30 14:28 60.13817 -6.82456 39215 ft 485 kts 132°
2026-04-30 14:28 60.09772 -6.71598 39226 ft 486 kts 132°
2026-04-30 14:29 60.02371 -6.51876 39221 ft 485 kts 132°
2026-04-30 14:31 59.91528 -6.23270 39236 ft 484 kts 133°
2026-04-30 14:31 59.85438 -6.07346 39253 ft 484 kts 133°
2026-04-30 14:32 59.79301 -5.91434 39242 ft 483 kts 133°
2026-04-30 14:33 59.75206 -5.80865 39254 ft 483 kts 133°
2026-04-30 14:33 59.69047 -5.65064 39244 ft 482 kts 133°
2026-04-30 14:34 59.64969 -5.54648 39258 ft 482 kts 133°
2026-04-30 14:34 59.60862 -5.44210 39251 ft 481 kts 133°
2026-04-30 14:35 59.54682 -5.28593 39260 ft 481 kts 133°
2026-04-30 14:36 59.50561 -5.18240 39258 ft 479 kts 133°
2026-04-30 14:36 59.46442 -5.07932 39257 ft 479 kts 133°
2026-04-30 14:37 59.42337 -4.97718 39263 ft 480 kts 133°
2026-04-30 14:37 59.38202 -4.87472 39249 ft 478 kts 133°
2026-04-30 14:38 59.34073 -4.77270 39249 ft 478 kts 134°
2026-04-30 14:38 59.29928 -4.67071 39263 ft 478 kts 134°
2026-04-30 14:39 59.25814 -4.57011 39245 ft 477 kts 134°
2026-04-30 14:39 59.21649 -4.46868 39255 ft 477 kts 134°
2026-04-30 14:40 59.15412 -4.31758 39251 ft 477 kts 134°
2026-04-30 14:40 59.11255 -4.21732 39252 ft 476 kts 134°
2026-04-30 14:41 59.07116 -4.11800 39268 ft 476 kts 134°
2026-04-30 14:41 59.02936 -4.01807 39284 ft 475 kts 134°
2026-04-30 14:42 58.98690 -3.92012 39274 ft 472 kts 140°
2026-04-30 14:42 58.93837 -3.83607 39284 ft 467 kts 144°
2026-04-30 14:43 58.88825 -3.75769 39279 ft 466 kts 146°
2026-04-30 14:43 58.86242 -3.71921 39396 ft 470 kts 147°
2026-04-30 14:43 58.83649 -3.68126 39629 ft 470 kts 147°
2026-04-30 14:44 58.81023 -3.64317 39898 ft 471 kts 147°
2026-04-30 14:44 58.78431 -3.60585 40152 ft 471 kts 147°
2026-04-30 14:44 58.75771 -3.56765 40384 ft 472 kts 147°
2026-04-30 14:44 58.73140 -3.52991 40630 ft 472 kts 147°
2026-04-30 14:45 58.70531 -3.49259 40850 ft 473 kts 147°
2026-04-30 14:45 58.67888 -3.45487 41068 ft 474 kts 147°
2026-04-30 14:45 58.65238 -3.41714 41233 ft 475 kts 147°
2026-04-30 14:45 58.62580 -3.37938 41271 ft 477 kts 147°
2026-04-30 14:46 58.57264 -3.30404 41280 ft 474 kts 147°
2026-04-30 14:46 58.51954 -3.22911 41293 ft 475 kts 147°
2026-04-30 14:47 58.46626 -3.15425 41289 ft 475 kts 147°
2026-04-30 14:47 58.41347 -3.08034 41284 ft 475 kts 147°
2026-04-30 14:48 58.36007 -3.00582 41296 ft 475 kts 147°
2026-04-30 14:48 58.30674 -2.93170 41284 ft 475 kts 147°
2026-04-30 14:49 58.25353 -2.85805 41289 ft 476 kts 147°
2026-04-30 14:49 58.19999 -2.78421 41296 ft 477 kts 147°
2026-04-30 14:50 58.11946 -2.67369 41289 ft 477 kts 147°
2026-04-30 14:51 58.03900 -2.56391 41291 ft 478 kts 147°
2026-04-30 14:52 57.95823 -2.45433 41297 ft 477 kts 147°
2026-04-30 14:52 57.87720 -2.34502 41294 ft 477 kts 147°
2026-04-30 14:53 57.79643 -2.23666 41313 ft 478 kts 147°
2026-04-30 14:54 57.68806 -2.09217 41345 ft 479 kts 147°
2026-04-30 14:55 57.60688 -1.98463 41339 ft 477 kts 147°
2026-04-30 14:56 57.49855 -1.84211 41359 ft 478 kts 147°
2026-04-30 14:57 57.41785 -1.73389 41368 ft 479 kts 144°
2026-04-30 14:58 57.31434 -1.57962 41363 ft 477 kts 143°
2026-04-30 14:58 57.23680 -1.46445 41362 ft 477 kts 143°
2026-04-30 15:00 57.10771 -1.27432 41379 ft 476 kts 144°
2026-04-30 15:01 57.00439 -1.12343 41377 ft 475 kts 144°
2026-04-30 15:01 56.92629 -1.01007 41382 ft 475 kts 144°
2026-04-30 15:02 56.87444 -0.93516 41374 ft 475 kts 144°
2026-04-30 15:03 56.74508 -0.74946 41371 ft 474 kts 144°
2026-04-30 15:04 56.61512 -0.56459 41371 ft 474 kts 144°
2026-04-30 15:06 56.48533 -0.38159 41370 ft 474 kts 144°
2026-04-30 15:07 56.38119 -0.23594 41377 ft 474 kts 144°
2026-04-30 15:08 56.27716 -0.09148 41374 ft 474 kts 144°
2026-04-30 15:09 56.14612 0.08898 41372 ft 476 kts 144°
2026-04-30 15:10 56.04118 0.23242 41378 ft 476 kts 144°
2026-04-30 15:11 55.88358 0.44596 41385 ft 476 kts 144°
2026-04-30 15:13 55.75129 0.62353 41394 ft 479 kts 145°
2026-04-30 15:14 55.56533 0.87072 41398 ft 479 kts 144°
2026-04-30 15:17 55.32584 1.18692 41409 ft 478 kts 144°
2026-04-30 15:19 55.11256 1.46444 41414 ft 477 kts 144°